Showing default

OTP-2, 63235

Orbit data source: Space-Track

OTP-2, 63235 is a payload satellite owned by Rogue Space (US) in SSO that was launched on Sat, 15 Mar 2025 UTC via an FALCON 9 launch vehicle from the Air Force Western Test Range (AFWTR). Payload-class satellites include a variety of spacecraft equipped with specific instruments for various scientific and technological missions. These include communications satellites like Starlink; space stations such as the ISS; scientific satellites like the Hubble; Earth observation satellites from companies like Planet Labs, Umbra, and HawkEye 360; GPS; miniature CubeSats for education and research; and military/defense satellites.

Loading next visibility...
Identifier
63235, 2025-052AB
Orbit
SSO
Country
Flag of USUS
Related business
Manufacturer
Rogue Space
Mission
Operational Commercial Technology
Bus & Motor
CUBESAT 8U, Unknown motor
Mass
11 kg wet, 11 kg dry
Launch date (UTC)
2025-03-15 (6 months ago)
Launch vehicle
FALCON 9
Launch site
Air Force Western Test Range (AFWTR)
Object type
Payload
Rocket body
Debris
Shape & HBR
Box + 2 Pan, 0.3 m
Radar Cross Section
0.055 m², Small (<0.1 m²)

Expand to show TLE details & history
Last TLE update: 14 hours ago

TLE from 14 hours ago
0 OTP-2
1 63235U 25052AB  25241.64110981  .00011376  00000-0  54794-3 0  9997
2 63235  97.4158 133.8440 0009107 101.4411 258.7847 15.18869011 25533
Epoch: 2025-08-29T15:23Z
TLE epoch observation values (Epoch: 2025-08-29T15:23:11.887Z)
Latitude
-0.00001°
Longitude
-75.04237°
Altitude
513.572 km
Speed
7.606 km/s
True Right ascension
08h 55m 22s
True Declination
0° 00' 00"
Sunlit
Object was in daylight at epoch
Visualization orbit readout
Latitude
Unknown
Longitude
Unknown
Altitude
Unknown
Speed
Unknown
Apparent Right ascension
Unknown
Apparent Declination
Unknown
Sunlit
N/A
Visualization observer readout
Local Sidereal Time
20:27:44
Azimuth
Unknown
Elevation
Unknown
Doppler factor
Unknown
Orbital elements
Apogee altitude
512.495 km
Perigee altitude
499.956 km
Semi-major axis
6,884.362 km
Eccentricity
0.00091
Inclination
97.4158°
RAAN
133.844°
Arg. of periapsis
101.4411°
True anomaly
258.68236°
Mean anomaly
258.7847°
Eccentric anomaly
258.73353°
Mean motion
3.79969 °/min
Orbital period
94.74 mins
BSTAR
0.00054794
Loading maneuver chart data...
Computing Atmospheric mass density...
Loading historical data...
Loading historical data...
Loading historical data...
Loading historical data...
Loading historical data...
Loading historical data...
Loading historical data...

Documentation

Showing up to 5 results
|